Airfield :
LOGIN :

Register | Disclaimer

   EN    FR    IT 

 










Legend :    VFR   Marginal VFR   IFR   Intensive IFR   Very Intensive IFR
Visi :
Ceiling :
>= 8 km
>= 3000ft
5 to 8 km
1000 to 3000 ft
1500m to 5 km
500 to 1000 ft
800 to 1500m
200 to 500 ft
< 800m
< 200 ft
Symbols :   Thunderstorms  Fog  Heavy snow  Heavy precipitations  Wind > 20 kt
SIGMETs :     Misc.  Thunderstorms  Icing  Turbulence  Mountain Waves  Volcanic Ashes






- Airport Elevation : 7 ft
- IATA code : ESH


EGKA - Shoreham

CURRENT METAR :
  • 091050Z 27006KT CAVOK 07/03 Q1003

EXPIRED METARs :
  • 091020Z 25008KT CAVOK 06/03 Q1004
  • 090950Z 25011KT CAVOK 06/02 Q1004
  • 090920Z 25007KT CAVOK 05/02 Q1004
  • 090820Z 26009KT CAVOK 04/02 Q1004

TAF TAF EGKA
Valid from the 09 at 09:00 until the 09 at 18:00 UTC


090830Z 0909/0918 26010KT 9999 FEW030
BECMG 0916/0918 20014KT
TEMPO 0917/0918 7000 RA BKN012
ATIS : +44 1273 467 372



MET'MAP, your aeronautical weather chart ! - Copyright ORBIFLY December 2007 - Disclaimer

ORBIFLY MET'MAP TEAM :

Programming & Development : Alexandra Zaïnal
Concept & original design : Baudouin d'Aumeries
Assistance for programming : Marc-Olivier Méhu
Technical & hardware support : Manuel Goepfert

Contact : metmap@orbifly.com




SOURCES & CREDITS :

   NOAA